User: anonymous   Login
Location: Angwan Shehu
(11.2514°N, 7.4613°E)
Time: 18:49:58
(UTC+00:00)
Language:

SR - Orbit

View from above orbital plane
View from above orbital plane
View from above satellite
View from above satellite

Ground track
Ground track

The orbit data is extracted from the following two-line orbital elements,

1 00046U 60007B   21163.47056925 -.00000015  00000-0  20241-4 0  9994
2 00046  66.6886 153.6543 0215482 224.3005 134.0684 14.49406753191287
Epoch (UTC): 12 June 2021 11:17:37
Eccentricity: 0.0215482
inclination: 66.6886°
perigee height: 574 km
apogee height: 881 km
right ascension of ascending node: 153.6543°
argument of perigee: 224.3005°
revolutions per day: 14.49406753
mean anomaly at epoch: 134.0684°
orbit number at epoch: 19128

The dashed part of the orbit path shows where the satellite is in the earth's shadow,  

DLR